Regional Weather Roundup
Issued by NWS

Home | Current Version | Previous Version | Text Only | Print | Product List | Glossary Off
Versions: 1 2 3 4 5 6 7 8 9 10 11 12 13 14 15 16 17 18 19 20 21 22 23 24 25 26 27 28 29 30 31 32 33 34 35 36 37 38 39 40 41 42 43 44 45 46 47 48 49 50

000
ASUS45 KBOI 290810
RWRID
WEATHER ROUNDUP FOR IDAHO
NATIONAL WEATHER SERVICE BOISE ID
200 AM MDT SUN MAR 29 2015

NOTE: "FAIR" INDICATES FEW OR NO CLOUDS BELOW 12000 FEET
WITH NO SIGNIFICANT WEATHER AND/OR OBSTRUCTIONS TO VISIBILITY

IDZ012-014-290900-
SOUTHWEST IDAHO


CITY           SKY/WX    TMP DP  RH WIND       PRES   REMARKS
BOISE          CLEAR     42  28  57 SE9       30.32S
CALDWELL       CLEAR     41  27  56 CALM      30.33S
MOUNTAIN HOME  CLEAR     39  26  58 NE5       30.33R
$$

IDZ016-017-290900-
SOUTHCENTRAL IDAHO


CITY           SKY/WX    TMP DP  RH WIND       PRES   REMARKS
BURLEY         CLEAR     39  20  46 W3        30.32R
JEROME         CLEAR     39  21  48 S7        30.33R WCI  34
TWIN FALLS     CLEAR     43  22  43 S15       30.32R
$$

IDZ019>023-290900-
SOUTHEAST IDAHO


CITY           SKY/WX    TMP DP  RH WIND       PRES   REMARKS
IDAHO FALLS    CLEAR     34  21  59 CALM      30.33R
POCATELLO      CLEAR     42  19  39 SW13      30.32S
REXBURG        CLEAR     37  20  50 S8        30.32R WCI  31
$$

IDZ006-010-011-018-031-032-290900-
CENTRAL IDAHO MOUNTAINS


CITY           SKY/WX    TMP DP  RH WIND       PRES   REMARKS
MCCALL         CLEAR     28  24  85 CALM      30.32S
HAILEY         CLEAR     36  23  60 NW8       30.34R WCI  29
STANLEY          N/A     24  19  81 SE3       30.37R
SALMON         CLEAR     34  25  69 SE3       30.35R
CHALLIS        CLEAR     31  20  63 S5        30.35R WCI  26
$$

IDZ002-004-006-007-026-290900-
NORTHERN IDAHO


CITY           SKY/WX    TMP DP  RH WIND       PRES   REMARKS
LEWISTON       PTCLDY    44  35  70 CALM      30.33S
LOWELL           N/A     42  40  92 CALM      30.39S
COEUR D`ALENE  PTCLDY    43  34  70 S7        30.30S
MULLAN PASS    PTCLDY    30  29  96 VRB6      30.28S WCI  24
$$



USA.gov is the U.S. government's official web portal to all federal, state and local government web resources and services.